Time,TemperatureF,DewpointF,PressureIn,WindDirection,WindDirectionDegrees,WindSpeedMPH,WindSpeedGustMPH,Humidity,HourlyPrecipIn,Conditions,Clouds,dailyrainin,SolarRadiationWatts/m^2,SoftwareType,DateUTC
2017-01-22 00:04:00,35.0,33.2,29.76,South,186,0.0,0.0,93,0.00,,SKC,0.00,0.00,VWS V15.00,2017-01-22 05:04:00,
2017-01-22 00:09:00,35.1,33.3,29.76,South,186,0.0,0.0,93,0.00,,SKC,0.00,0.00,VWS V15.00,2017-01-22 05:09:00,
2017-01-22 00:14:00,35.1,33.3,29.75,South,186,0.0,0.0,93,0.00,,SKC,0.00,0.00,VWS V15.00,2017-01-22 05:14:00,
2017-01-22 00:19:00,35.1,33.5,29.75,South,186,0.0,0.0,94,0.00,,SKC,0.00,0.00,VWS V15.00,2017-01-22 05:19:00,
2017-01-22 00:24:00,35.1,33.5,29.75,South,186,0.0,1.0,94,0.00,,SKC,0.00,0.00,VWS V15.00,2017-01-22 05:24:00,
2017-01-22 00:29:00,35.3,33.8,29.75,South,186,0.0,0.0,94,0.00,,SKC,0.00,0.00,VWS V15.00,2017-01-22 05:29:00,
2017-01-22 00:34:00,35.7,34.2,29.75,South,186,0.0,0.0,94,0.00,,SKC,0.00,0.00,VWS V15.00,2017-01-22 05:34:00,
2017-01-22 00:39:00,35.9,34.3,29.75,South,186,0.0,1.0,94,0.00,,SKC,0.00,0.00,VWS V15.00,2017-01-22 05:39:00,
2017-01-22 00:44:00,35.9,34.3,29.75,South,186,0.0,0.0,94,0.00,,SKC,0.00,0.00,VWS V15.00,2017-01-22 05:44:00,
2017-01-22 00:49:00,35.9,34.3,29.75,South,186,0.0,0.0,94,0.00,,SKC,0.00,0.00,VWS V15.00,2017-01-22 05:49:00,
2017-01-22 00:54:00,35.9,34.3,29.74,South,186,0.0,0.0,94,0.00,,SKC,0.00,0.00,VWS V15.00,2017-01-22 05:54:00,
2017-01-22 00:59:00,35.9,34.3,29.75,South,186,0.0,0.0,94,0.00,,SKC,0.00,0.00,VWS V15.00,2017-01-22 05:59:00,
2017-01-22 01:04:00,36.0,34.4,29.74,South,186,0.0,0.0,94,0.00,,SKC,0.00,0.00,VWS V15.00,2017-01-22 06:04:00,
2017-01-22 01:09:00,36.0,34.4,29.75,South,186,0.0,0.0,94,0.00,,SKC,0.00,0.00,VWS V15.00,2017-01-22 06:09:00,
2017-01-22 01:14:00,36.1,34.5,29.74,South,186,0.0,0.0,94,0.00,,SKC,0.00,0.00,VWS V15.00,2017-01-22 06:14:00,
2017-01-22 01:19:00,36.1,34.5,29.74,South,186,0.0,0.0,94,0.00,,SKC,0.00,0.00,VWS V15.00,2017-01-22 06:19:00,
2017-01-22 01:24:00,36.1,34.5,29.74,South,186,0.0,0.0,94,0.00,,SKC,0.00,0.00,VWS V15.00,2017-01-22 06:24:00,
2017-01-22 01:29:00,36.1,34.5,29.74,South,186,0.0,0.0,94,0.00,,SKC,0.00,0.00,VWS V15.00,2017-01-22 06:29:00,
2017-01-22 01:34:00,36.1,34.5,29.75,South,186,0.0,0.0,94,0.00,,SKC,0.00,0.00,VWS V15.00,2017-01-22 06:34:00,
2017-01-22 01:39:00,36.1,34.5,29.75,South,186,0.0,0.0,94,0.00,,SKC,0.00,0.00,VWS V15.00,2017-01-22 06:39:00,
2017-01-22 01:44:00,36.1,34.5,29.75,South,186,0.0,0.0,94,0.00,,SKC,0.00,0.00,VWS V15.00,2017-01-22 06:44:00,
2017-01-22 01:49:00,36.1,34.5,29.76,South,186,0.0,0.0,94,0.00,,SKC,0.00,0.00,VWS V15.00,2017-01-22 06:49:00,
2017-01-22 01:54:00,36.0,34.4,29.76,South,185,0.0,2.0,94,0.00,,SKC,0.00,0.00,VWS V15.00,2017-01-22 06:54:00,
2017-01-22 01:59:00,35.9,34.3,29.76,South,185,0.0,0.0,94,0.00,,SKC,0.00,0.00,VWS V15.00,2017-01-22 06:59:00,
2017-01-22 02:04:00,35.8,34.2,29.75,South,185,0.0,0.0,94,0.00,,SKC,0.00,0.00,VWS V15.00,2017-01-22 07:04:00,
2017-01-22 02:09:00,35.7,34.2,29.75,South,185,0.0,0.0,94,0.00,,SKC,0.00,0.00,VWS V15.00,2017-01-22 07:09:00,
2017-01-22 02:14:00,35.7,34.2,29.76,South,185,0.0,0.0,94,0.00,,SKC,0.00,0.00,VWS V15.00,2017-01-22 07:14:00,
2017-01-22 02:19:00,35.6,34.0,29.75,South,185,0.0,0.0,94,0.00,,SKC,0.00,0.00,VWS V15.00,2017-01-22 07:19:00,
2017-01-22 02:24:00,35.6,34.0,29.76,South,185,0.0,0.0,94,0.00,,SKC,0.00,0.00,VWS V15.00,2017-01-22 07:24:00,
2017-01-22 02:29:00,35.6,34.0,29.76,South,185,0.0,0.0,94,0.00,,SKC,0.00,0.00,VWS V15.00,2017-01-22 07:29:00,
2017-01-22 02:34:00,35.6,34.0,29.76,South,185,0.0,0.0,94,0.00,,SKC,0.00,0.00,VWS V15.00,2017-01-22 07:34:00,
2017-01-22 02:39:00,35.6,34.0,29.75,South,185,0.0,0.0,94,0.00,,SKC,0.00,0.00,VWS V15.00,2017-01-22 07:39:00,
2017-01-22 02:44:00,35.6,34.0,29.76,South,185,0.0,0.0,94,0.00,,SKC,0.00,0.00,VWS V15.00,2017-01-22 07:44:00,
2017-01-22 02:49:00,35.7,34.2,29.76,South,185,0.0,0.0,94,0.00,,SKC,0.00,0.00,VWS V15.00,2017-01-22 07:49:00,
2017-01-22 02:54:00,35.7,34.2,29.75,South,185,0.0,0.0,94,0.00,,SKC,0.00,0.00,VWS V15.00,2017-01-22 07:54:00,
2017-01-22 02:59:00,35.8,34.2,29.75,South,185,0.0,0.0,94,0.00,,SKC,0.00,0.00,VWS V15.00,2017-01-22 07:59:00,
2017-01-22 03:04:00,35.9,34.3,29.75,South,185,0.0,0.0,94,0.00,,SKC,0.00,0.00,VWS V15.00,2017-01-22 08:04:00,
2017-01-22 03:09:00,36.0,34.4,29.75,South,185,0.0,0.0,94,0.00,,SKC,0.00,0.00,VWS V15.00,2017-01-22 08:09:00,
2017-01-22 03:14:00,36.0,34.4,29.75,South,185,0.0,0.0,94,0.00,,SKC,0.00,0.00,VWS V15.00,2017-01-22 08:14:00,
2017-01-22 03:19:00,36.0,34.4,29.75,South,185,0.0,0.0,94,0.00,,SKC,0.00,0.00,VWS V15.00,2017-01-22 08:19:00,
2017-01-22 03:24:00,36.0,34.4,29.75,South,185,0.0,0.0,94,0.00,,SKC,0.00,0.00,VWS V15.00,2017-01-22 08:24:00,
2017-01-22 03:29:00,36.0,34.4,29.75,South,185,0.0,0.0,94,0.00,,SKC,0.00,0.00,VWS V15.00,2017-01-22 08:29:00,
2017-01-22 03:34:00,36.0,34.4,29.75,South,185,0.0,0.0,94,0.00,,SKC,0.00,0.00,VWS V15.00,2017-01-22 08:34:00,
2017-01-22 03:39:00,36.0,34.4,29.75,South,185,0.0,0.0,94,0.00,,SKC,0.00,0.00,VWS V15.00,2017-01-22 08:39:00,
2017-01-22 03:44:00,35.9,34.3,29.75,South,185,0.0,0.0,94,0.00,,SKC,0.00,0.00,VWS V15.00,2017-01-22 08:44:00,
2017-01-22 03:49:00,35.9,34.3,29.75,South,185,0.0,0.0,94,0.00,,SKC,0.00,0.00,VWS V15.00,2017-01-22 08:49:00,
2017-01-22 03:54:00,35.9,34.3,29.75,South,185,0.0,0.0,94,0.00,,SKC,0.00,0.00,VWS V15.00,2017-01-22 08:54:00,
2017-01-22 03:59:00,35.9,34.3,29.74,South,185,0.0,0.0,94,0.00,,SKC,0.00,0.00,VWS V15.00,2017-01-22 08:59:00,
2017-01-22 04:03:00,35.8,34.2,29.75,South,185,0.0,0.0,94,0.00,,SKC,0.00,0.00,VWS V15.00,2017-01-22 09:03:00,
2017-01-22 04:08:00,35.8,34.2,29.75,South,185,0.0,0.0,94,0.00,,SKC,0.00,0.00,VWS V15.00,2017-01-22 09:08:00,
2017-01-22 04:13:00,35.7,34.2,29.74,South,185,0.0,0.0,94,0.00,,SKC,0.00,0.00,VWS V15.00,2017-01-22 09:13:00,
2017-01-22 04:18:00,35.7,34.2,29.74,South,185,0.0,0.0,94,0.00,,SKC,0.00,0.00,VWS V15.00,2017-01-22 09:18:00,
2017-01-22 04:23:00,35.7,34.2,29.74,South,185,0.0,0.0,94,0.00,,SKC,0.00,0.00,VWS V15.00,2017-01-22 09:23:00,
2017-01-22 04:29:00,35.6,34.0,29.74,South,185,0.0,0.0,94,0.00,,SKC,0.00,0.00,VWS V15.00,2017-01-22 09:29:00,
2017-01-22 04:33:00,35.6,34.0,29.74,South,185,0.0,0.0,94,0.00,,SKC,0.00,0.00,VWS V15.00,2017-01-22 09:33:00,
2017-01-22 04:38:00,35.6,34.0,29.74,South,185,0.0,0.0,94,0.00,,SKC,0.00,0.00,VWS V15.00,2017-01-22 09:38:00,
2017-01-22 04:43:00,35.6,34.0,29.74,South,185,0.0,0.0,94,0.00,,SKC,0.00,0.00,VWS V15.00,2017-01-22 09:43:00,
2017-01-22 04:48:00,35.6,34.0,29.74,South,185,0.0,0.0,94,0.00,,SKC,0.00,0.00,VWS V15.00,2017-01-22 09:48:00,
2017-01-22 04:53:00,35.7,34.2,29.74,South,185,0.0,0.0,94,0.00,,SKC,0.00,0.00,VWS V15.00,2017-01-22 09:53:00,
2017-01-22 04:58:00,35.7,34.2,29.74,South,185,0.0,1.0,94,0.00,,SKC,0.00,0.00,VWS V15.00,2017-01-22 09:58:00,
2017-01-22 05:03:00,35.7,34.2,29.74,South,185,1.0,1.0,94,0.00,,SKC,0.00,0.00,VWS V15.00,2017-01-22 10:03:00,
2017-01-22 05:08:00,35.7,34.2,29.73,South,183,0.0,3.0,94,0.00,,SKC,0.00,0.00,VWS V15.00,2017-01-22 10:08:00,
2017-01-22 05:13:00,35.9,34.6,29.73,South,184,0.0,2.0,95,0.00,,SKC,0.00,0.00,VWS V15.00,2017-01-22 10:13:00,
2017-01-22 05:18:00,36.0,34.4,29.73,South,184,0.0,4.0,94,0.00,,SKC,0.00,0.00,VWS V15.00,2017-01-22 10:18:00,
2017-01-22 05:23:00,36.1,34.5,29.73,South,181,0.0,4.0,94,0.00,,SKC,0.00,0.00,VWS V15.00,2017-01-22 10:23:00,
2017-01-22 05:28:00,36.1,34.5,29.73,South,181,0.0,0.0,94,0.00,,SKC,0.00,0.00,VWS V15.00,2017-01-22 10:28:00,
2017-01-22 05:33:00,36.1,34.5,29.73,South,181,0.0,2.0,94,0.00,,SKC,0.00,0.00,VWS V15.00,2017-01-22 10:33:00,
2017-01-22 05:38:00,36.2,34.6,29.74,South,181,0.0,1.0,94,0.00,,SKC,0.00,0.00,VWS V15.00,2017-01-22 10:38:00,
2017-01-22 05:43:00,36.2,34.6,29.75,South,181,0.0,0.0,94,0.00,,SKC,0.00,0.00,VWS V15.00,2017-01-22 10:43:00,
2017-01-22 05:48:00,36.2,34.6,29.74,South,181,0.0,0.0,94,0.00,,SKC,0.00,0.00,VWS V15.00,2017-01-22 10:48:00,
2017-01-22 05:53:00,36.2,34.6,29.74,South,181,0.0,0.0,94,0.00,,SKC,0.00,0.00,VWS V15.00,2017-01-22 10:53:00,
2017-01-22 05:58:00,36.1,34.5,29.74,South,181,0.0,0.0,94,0.00,,SKC,0.00,0.00,VWS V15.00,2017-01-22 10:58:00,
2017-01-22 06:03:00,36.1,34.5,29.74,South,181,0.0,0.0,94,0.00,,SKC,0.00,0.00,VWS V15.00,2017-01-22 11:03:00,
2017-01-22 06:08:00,36.1,34.5,29.75,South,181,0.0,0.0,94,0.00,,SKC,0.00,0.00,VWS V15.00,2017-01-22 11:08:00,
2017-01-22 06:13:00,36.0,34.4,29.75,South,181,0.0,0.0,94,0.00,,SKC,0.00,0.00,VWS V15.00,2017-01-22 11:13:00,
2017-01-22 06:18:00,36.1,34.5,29.75,South,179,0.0,3.0,94,0.00,,SKC,0.00,0.00,VWS V15.00,2017-01-22 11:18:00,
2017-01-22 06:23:00,36.0,34.4,29.75,South,179,1.0,1.0,94,0.00,,SKC,0.00,0.00,VWS V15.00,2017-01-22 11:23:00,
2017-01-22 06:28:00,36.0,34.4,29.75,South,179,0.0,3.0,94,0.00,,SKC,0.00,0.00,VWS V15.00,2017-01-22 11:28:00,
2017-01-22 06:33:00,36.1,34.5,29.75,South,179,0.0,0.0,94,0.00,,SKC,0.00,0.00,VWS V15.00,2017-01-22 11:33:00,
2017-01-22 06:34:00,36.1,34.5,29.76,South,179,0.0,0.0,94,0.00,,SKC,0.00,0.00,VWS V15.00,2017-01-22 11:34:00,
2017-01-22 06:39:00,36.1,34.5,29.76,South,179,0.0,0.0,94,0.00,,SKC,0.00,0.00,VWS V15.00,2017-01-22 11:39:00,
2017-01-22 06:44:00,36.1,34.5,29.76,South,179,0.0,0.0,94,0.00,,SKC,0.00,0.00,VWS V15.00,2017-01-22 11:44:00,
2017-01-22 06:49:00,36.0,34.4,29.76,South,179,0.0,0.0,94,0.00,,SKC,0.00,0.00,VWS V15.00,2017-01-22 11:49:00,
2017-01-22 06:54:00,36.0,34.4,29.76,South,179,0.0,0.0,94,0.00,,SKC,0.00,0.00,VWS V15.00,2017-01-22 11:54:00,
2017-01-22 06:59:00,36.0,34.4,29.76,South,179,0.0,0.0,94,0.00,,SKC,0.00,0.00,VWS V15.00,2017-01-22 11:59:00,
2017-01-22 07:04:00,36.0,34.4,29.77,South,179,0.0,0.0,94,0.00,,SKC,0.00,0.00,VWS V15.00,2017-01-22 12:04:00,
2017-01-22 07:09:00,35.9,34.3,29.77,South,179,0.0,0.0,94,0.00,,SKC,0.00,0.00,VWS V15.00,2017-01-22 12:09:00,
2017-01-22 07:14:00,35.9,34.3,29.77,South,179,0.0,0.0,94,0.00,,SKC,0.00,0.00,VWS V15.00,2017-01-22 12:14:00,
2017-01-22 07:19:00,35.9,34.3,29.78,South,179,0.0,0.0,94,0.00,,SKC,0.00,0.00,VWS V15.00,2017-01-22 12:19:00,
2017-01-22 07:24:00,35.8,34.2,29.78,South,179,0.0,0.0,94,0.00,,SKC,0.00,0.00,VWS V15.00,2017-01-22 12:24:00,
2017-01-22 07:29:00,35.8,34.2,29.78,South,179,0.0,0.0,94,0.00,,SKC,0.00,0.00,VWS V15.00,2017-01-22 12:29:00,
2017-01-22 07:34:00,35.7,34.2,29.78,South,179,0.0,0.0,94,0.00,,SKC,0.00,0.00,VWS V15.00,2017-01-22 12:34:00,
2017-01-22 07:39:00,35.7,34.2,29.79,South,179,0.0,0.0,94,0.00,,SKC,0.00,0.00,VWS V15.00,2017-01-22 12:39:00,
2017-01-22 07:44:00,35.6,34.0,29.78,South,179,0.0,0.0,94,0.00,,SKC,0.00,5.00,VWS V15.00,2017-01-22 12:44:00,
2017-01-22 07:49:00,35.6,34.0,29.79,South,179,0.0,0.0,94,0.00,,SKC,0.00,5.00,VWS V15.00,2017-01-22 12:49:00,
2017-01-22 07:54:00,35.5,34.0,29.79,South,179,0.0,0.0,94,0.00,,SKC,0.00,7.00,VWS V15.00,2017-01-22 12:54:00,
2017-01-22 07:59:00,35.5,34.0,29.79,South,179,0.0,1.0,94,0.00,,SKC,0.00,9.00,VWS V15.00,2017-01-22 12:59:00,
2017-01-22 08:04:00,35.5,34.0,29.79,South,179,0.0,0.0,94,0.00,,SKC,0.00,12.00,VWS V15.00,2017-01-22 13:04:00,
2017-01-22 08:09:00,35.4,34.1,29.79,South,179,0.0,0.0,95,0.00,,SKC,0.00,14.00,VWS V15.00,2017-01-22 13:09:00,
2017-01-22 08:14:00,35.5,34.2,29.79,South,179,0.0,1.0,95,0.00,,SKC,0.00,18.00,VWS V15.00,2017-01-22 13:14:00,
2017-01-22 08:19:00,35.5,34.2,29.79,South,179,0.0,0.0,95,0.00,,SKC,0.00,21.00,VWS V15.00,2017-01-22 13:19:00,
2017-01-22 08:24:00,35.5,34.2,29.79,South,179,0.0,0.0,95,0.00,,SKC,0.00,25.00,VWS V15.00,2017-01-22 13:24:00,
2017-01-22 08:29:00,35.6,34.3,29.79,South,179,0.0,0.0,95,0.00,,SKC,0.00,35.00,VWS V15.00,2017-01-22 13:29:00,
2017-01-22 08:34:00,35.6,34.3,29.79,South,179,0.0,0.0,95,0.00,,SKC,0.00,44.00,VWS V15.00,2017-01-22 13:34:00,
2017-01-22 08:39:00,35.7,34.4,29.79,South,179,0.0,0.0,95,0.00,,SKC,0.00,40.00,VWS V15.00,2017-01-22 13:39:00,
2017-01-22 08:44:00,35.8,34.5,29.79,South,179,0.0,0.0,95,0.00,,SKC,0.00,51.00,VWS V15.00,2017-01-22 13:44:00,
2017-01-22 08:49:00,35.9,34.6,29.79,South,179,0.0,0.0,95,0.00,,SKC,0.00,49.00,VWS V15.00,2017-01-22 13:49:00,
2017-01-22 08:54:00,36.0,34.7,29.79,South,179,0.0,0.0,95,0.00,,SKC,0.00,53.00,VWS V15.00,2017-01-22 13:54:00,
2017-01-22 08:59:00,36.1,34.8,29.79,South,179,0.0,0.0,95,0.00,,SKC,0.00,56.00,VWS V15.00,2017-01-22 13:59:00,
2017-01-22 09:04:00,36.2,34.9,29.79,South,179,0.0,0.0,95,0.00,,SKC,0.00,63.00,VWS V15.00,2017-01-22 14:04:00,
2017-01-22 09:09:00,36.4,35.1,29.80,South,179,0.0,0.0,95,0.00,,SKC,0.00,56.00,VWS V15.00,2017-01-22 14:09:00,
2017-01-22 09:14:00,36.5,35.2,29.79,South,179,0.0,0.0,95,0.00,,SKC,0.00,49.00,VWS V15.00,2017-01-22 14:14:00,
2017-01-22 09:19:00,36.6,35.3,29.79,South,179,0.0,0.0,95,0.00,,SKC,0.00,53.00,VWS V15.00,2017-01-22 14:19:00,
2017-01-22 09:24:00,36.6,35.3,29.79,South,179,0.0,0.0,95,0.00,,SKC,0.00,49.00,VWS V15.00,2017-01-22 14:24:00,
2017-01-22 09:29:00,36.7,35.4,29.79,South,179,0.0,0.0,95,0.00,,SKC,0.00,54.00,VWS V15.00,2017-01-22 14:29:00,
2017-01-22 09:34:00,36.8,35.5,29.79,South,179,0.0,0.0,95,0.00,,SKC,0.00,76.00,VWS V15.00,2017-01-22 14:34:00,
2017-01-22 09:39:00,36.8,35.5,29.79,South,179,0.0,0.0,95,0.00,,SKC,0.00,84.00,VWS V15.00,2017-01-22 14:39:00,
2017-01-22 09:44:00,36.9,35.6,29.79,South,179,0.0,0.0,95,0.00,,SKC,0.00,84.00,VWS V15.00,2017-01-22 14:44:00,
2017-01-22 09:49:00,37.1,35.8,29.78,South,179,0.0,0.0,95,0.00,,SKC,0.00,97.00,VWS V15.00,2017-01-22 14:49:00,
2017-01-22 09:54:00,37.2,35.9,29.78,South,179,0.0,0.0,95,0.00,,SKC,0.00,104.00,VWS V15.00,2017-01-22 14:54:00,
2017-01-22 09:59:00,37.3,36.0,29.78,South,179,0.0,0.0,95,0.00,,SKC,0.00,84.00,VWS V15.00,2017-01-22 14:59:00,
2017-01-22 10:04:00,37.4,36.1,29.78,South,179,0.0,0.0,95,0.00,,SKC,0.00,60.00,VWS V15.00,2017-01-22 15:04:00,
2017-01-22 10:09:00,37.5,36.2,29.78,South,179,0.0,0.0,95,0.00,,SKC,0.00,58.00,VWS V15.00,2017-01-22 15:09:00,
2017-01-22 10:14:00,37.6,36.3,29.78,South,179,0.0,0.0,95,0.00,,SKC,0.00,93.00,VWS V15.00,2017-01-22 15:14:00,
2017-01-22 10:19:00,37.6,36.3,29.78,SSE,168,4.0,4.0,95,0.00,,SKC,0.00,91.00,VWS V15.00,2017-01-22 15:19:00,
2017-01-22 10:24:00,37.5,36.2,29.78,SSE,166,0.0,0.0,95,0.00,,SKC,0.00,114.00,VWS V15.00,2017-01-22 15:24:00,
2017-01-22 10:29:00,37.5,36.2,29.78,SSE,166,0.0,3.0,95,0.00,,SKC,0.00,111.00,VWS V15.00,2017-01-22 15:29:00,
2017-01-22 10:34:00,37.5,36.2,29.78,SSE,165,0.0,5.0,95,0.00,,SKC,0.00,128.00,VWS V15.00,2017-01-22 15:34:00,
2017-01-22 10:39:00,37.5,36.2,29.78,SSE,150,0.0,3.0,95,0.00,,SKC,0.00,104.00,VWS V15.00,2017-01-22 15:39:00,
2017-01-22 10:44:00,37.5,36.2,29.79,SE,143,1.0,3.0,95,0.00,,SKC,0.00,120.00,VWS V15.00,2017-01-22 15:44:00,
2017-01-22 10:49:00,37.5,36.2,29.79,ENE,68,2.0,7.0,95,0.00,,SKC,0.00,128.00,VWS V15.00,2017-01-22 15:49:00,
2017-01-22 10:54:00,37.4,36.1,29.79,ENE,66,0.0,3.0,95,0.00,,SKC,0.00,132.00,VWS V15.00,2017-01-22 15:54:00,
2017-01-22 10:59:00,37.3,36.0,29.79,NE,44,0.0,6.0,95,0.00,,SKC,0.00,128.00,VWS V15.00,2017-01-22 15:59:00,
2017-01-22 11:04:00,37.1,35.5,29.80,ENE,76,3.0,5.0,94,0.00,,SKC,0.00,128.00,VWS V15.00,2017-01-22 16:04:00,
2017-01-22 11:09:00,36.9,35.3,29.80,ENE,76,2.0,3.0,94,0.00,,SKC,0.00,139.00,VWS V15.00,2017-01-22 16:09:00,
2017-01-22 11:14:00,36.9,35.6,29.79,ENE,76,1.0,8.0,95,0.00,,SKC,0.00,156.00,VWS V15.00,2017-01-22 16:14:00,
2017-01-22 11:19:00,37.0,35.7,29.80,ENE,76,0.0,4.0,95,0.00,,SKC,0.00,102.00,VWS V15.00,2017-01-22 16:19:00,
2017-01-22 11:24:00,37.1,35.8,29.80,ENE,78,0.0,0.0,95,0.00,,SKC,0.00,100.00,VWS V15.00,2017-01-22 16:24:00,
2017-01-22 11:29:00,37.2,35.9,29.80,South,178,2.0,5.0,95,0.00,,SKC,0.00,102.00,VWS V15.00,2017-01-22 16:29:00,
2017-01-22 11:34:00,37.2,35.9,29.80,South,179,0.0,2.0,95,0.00,,SKC,0.00,121.00,VWS V15.00,2017-01-22 16:34:00,
2017-01-22 11:39:00,37.1,35.5,29.80,South,179,3.0,3.0,94,0.00,,SKC,0.00,114.00,VWS V15.00,2017-01-22 16:39:00,
2017-01-22 11:44:00,37.0,35.4,29.80,South,179,0.0,1.0,94,0.00,,SKC,0.00,109.00,VWS V15.00,2017-01-22 16:44:00,
2017-01-22 11:49:00,36.9,35.3,29.80,South,179,0.0,0.0,94,0.00,,SKC,0.00,84.00,VWS V15.00,2017-01-22 16:49:00,
2017-01-22 11:54:00,36.9,35.3,29.80,South,179,0.0,0.0,94,0.00,,SKC,0.00,98.00,VWS V15.00,2017-01-22 16:54:00,
2017-01-22 11:59:00,36.8,35.2,29.80,South,179,0.0,0.0,94,0.00,,SKC,0.00,111.00,VWS V15.00,2017-01-22 16:59:00,
2017-01-22 12:04:00,36.8,35.2,29.80,South,179,0.0,0.0,94,0.00,,SKC,0.00,97.00,VWS V15.00,2017-01-22 17:04:00,
2017-01-22 12:09:00,36.9,35.3,29.79,South,179,0.0,0.0,94,0.00,,SKC,0.00,114.00,VWS V15.00,2017-01-22 17:09:00,
2017-01-22 12:14:00,36.8,35.2,29.79,South,179,0.0,0.0,94,0.00,,SKC,0.00,104.00,VWS V15.00,2017-01-22 17:14:00,
2017-01-22 12:19:00,36.8,35.2,29.79,South,179,0.0,2.0,94,0.00,,SKC,0.00,67.00,VWS V15.00,2017-01-22 17:19:00,
2017-01-22 12:24:00,36.7,35.1,29.79,South,179,0.0,0.0,94,0.00,,SKC,0.00,79.00,VWS V15.00,2017-01-22 17:24:00,
2017-01-22 12:29:00,36.7,35.1,29.79,South,179,0.0,1.0,94,0.00,,SKC,0.00,76.00,VWS V15.00,2017-01-22 17:29:00,
2017-01-22 12:34:00,36.6,35.0,29.79,South,179,0.0,0.0,94,0.00,,SKC,0.00,65.00,VWS V15.00,2017-01-22 17:34:00,
2017-01-22 12:39:00,36.5,34.9,29.79,South,179,0.0,0.0,94,0.00,,SKC,0.00,67.00,VWS V15.00,2017-01-22 17:39:00,
2017-01-22 12:44:00,36.4,34.8,29.79,South,179,0.0,0.0,94,0.00,,SKC,0.00,69.00,VWS V15.00,2017-01-22 17:44:00,